Flag for Canada Weather past 2 weeks in Yellowknife, Northwest Territories, Canada

39 °F

Passing clouds.

Feels Like: 35 °F
Forecast: 34 / 44 °F
Wind: 6 mph from South

Location: Yellowknife

Current Time: Oct 3, 2015 at 11:08:12 PM

Latest Report: Oct 3, 2015 at 10:00 PM

Visibility: 15 mi

Pressure: 30.39 "Hg

Humidity: 75%

Dew point: 32 °F

Location of YellowknifeLocation

Historic Weather in Yellowknife — Graph


Yellowknife temperature yesterday

Maximum temperature yesterday: 41 °F (at 12:00 AM)
Minimum temperature yesterday: 36 °F (at 11:00 PM)
Average temperature yesterday: 40 °F

Past Weeks' High & Low Weather Summary

High63 °F (Sep 30, 1:00 PM)100% (Sep 19, 1:00 PM)30.53 "Hg (Sep 19, 1:00 PM)
Low25 °F (Sep 28, 9:00 AM)40% (Sep 26, 1:00 PM)29.07 "Hg (Sep 19, 2:00 PM)
Average42 °F76%29.82 "Hg
* Reported Sep 18 9:00 PM — Oct 3 9:00 PM, Yellowknife, Weather by CustomWeather, © 2015

Note: Actual official high and low records may vary slightly from our data, if they occured in-between our weather recording intervals... More about our weather records


Yellowknife weather history for previous 24 hours

Time TempWeatherWind HumidityBarometerVisibility
9:00 PM
Sat, Oct 3
39 °FPassing clouds.6 mph70%30.40 "Hg15 mi
8:00 PM39 °FPartly sunny.8 mph70%30.42 "Hg15 mi
7:00 PM39 °FPartly sunny.8 mph70%30.42 "Hg15 mi
6:00 PM41 °FPartly sunny.9 mph70%30.43 "Hg15 mi
5:00 PM41 °FPartly sunny.12 mph76%30.44 "Hg15 mi
4:00 PM41 °FPartly sunny.8 mph76%30.45 "Hg15 mi
3:00 PM37 °FLight rain. Partly sunny.8 mph93%30.48 "Hg15 mi
2:00 PM41 °FBroken clouds.6 mph76%30.49 "Hg15 mi
1:51 PM41 °FBroken clouds.5 mph81%30.48 "Hg15 mi
1:00 PM39 °FOvercast.10 mph87%30.50 "Hg15 mi
12:00 PM37 °FLight rain. Mostly cloudy.2 mph93%30.50 "Hg15 mi
11:00 AM36 °FMostly cloudy.8 mph93%30.51 "Hg15 mi
10:00 AM36 °FLight snow. Mostly cloudy.9 mph87%30.51 "Hg15 mi
9:00 AM34 °FLight snow. Mostly cloudy.8 mph93%30.52 "Hg10 mi
8:00 AM34 °FLight snow. Passing clouds.6 mph87%30.52 "Hg3 mi
7:00 AM34 °FPassing clouds.7 mph87%30.52 "Hg15 mi
6:00 AM34 °FPassing clouds.7 mph87%30.53 "Hg15 mi
4:00 AM30 °FPassing clouds.5 mph93%30.52 "Hg15 mi
3:00 AM28 °FClear.5 mph86%30.52 "Hg15 mi
2:00 AM28 °FClear.3 mph86%30.52 "Hg15 mi
1:00 AM32 °FClear.No wind75%30.50 "Hg15 mi
12:00 AM34 °FPassing clouds.3 mph70%30.50 "Hg15 mi
11:00 PM
Fri, Oct 2
36 °FPassing clouds.3 mph70%30.50 "Hg15 mi
Weather by CustomWeather, © 2015

See weather overviewHow to use our weather pages